When you browse on this site, cookies collect data to enhance your experience and personalize the content and advertising you see.
Visit our Privacy Policy to learn more. By continuing to use the site, you agree to this use of cookies and data.
  • în România
  • Lista ţărilor
  • Pe 7 zile
  • Temperatura apei
  • Hartă satelitară
  • Meteo pe hartă
  • Widget-uri
  • user-avatar
    Intrare

    Meteo pe oră la Guskhara

    Astăzi, 20 Iulie, Sâmbătă

    Timp Temperatura Precipitaţii Vânt Presiune Umiditate
    00:00 +32°C° 0 mm 4 m/s 749 mmHg 76%
    01:00 +31°C° 0 mm 3 m/s 749 mmHg 77%
    02:00 +31°C° 0 mm 3 m/s 749 mmHg 79%
    03:00 +30°C° 0 mm 3 m/s 749 mmHg 80%
    04:00 +30°C° 0 mm 3 m/s 749 mmHg 80%
    05:00 +30°C° 0 mm 3 m/s 749 mmHg 81%
    06:00 +30°C° 0 mm 3 m/s 749 mmHg 82%
    07:00 +31°C° 0 mm 3 m/s 750 mmHg 76%
    08:00 +34°C° 0 mm 3 m/s 750 mmHg 70%
    09:00 +35°C° 0 mm 4 m/s 751 mmHg 64%
    10:00 +36°C° 0.1 mm 4 m/s 750 mmHg 60%
    11:00 +37°C° 0.1 mm 3 m/s 750 mmHg 57%
    12:00 +38°C° 0.1 mm 3 m/s 749 mmHg 53%
    13:00 +38°C° 0 mm 3 m/s 749 mmHg 51%
    14:00 +38°C° 0 mm 3 m/s 748 mmHg 50%
    15:00 +39°C° 0 mm 3 m/s 747 mmHg 49%
    16:00 +38°C° 0 mm 3 m/s 747 mmHg 50%
    17:00 +38°C° 0 mm 3 m/s 747 mmHg 50%
    18:00 +38°C° 0 mm 3 m/s 747 mmHg 51%
    19:00 +37°C° 0 mm 3 m/s 747 mmHg 55%
    20:00 +36°C° 0 mm 4 m/s 748 mmHg 60%
    21:00 +35°C° 0 mm 5 m/s 748 mmHg 64%
    22:00 +34°C° 0 mm 5 m/s 748 mmHg 67%
    23:00 +33°C° 0 mm 5 m/s 749 mmHg 70%

    Mâine, 21 Iulie, Duminică

    Timp Temperatura Precipitaţii Vânt Presiune Umiditate
    00:00 +32°C° 0 mm 5 m/s 749 mmHg 73%
    01:00 +32°C° 0 mm 4 m/s 749 mmHg 76%
    02:00 +32°C° 0 mm 4 m/s 749 mmHg 78%
    03:00 +30°C° 0 mm 4 m/s 748 mmHg 80%
    04:00 +30°C° 0 mm 4 m/s 749 mmHg 81%
    05:00 +30°C° 0 mm 4 m/s 749 mmHg 82%
    06:00 +30°C° 0 mm 3 m/s 749 mmHg 83%
    07:00 +32°C° 0 mm 4 m/s 749 mmHg 76%
    08:00 +33°C° 0 mm 4 m/s 749 mmHg 69%
    09:00 +35°C° 0 mm 4 m/s 750 mmHg 63%
    10:00 +36°C° 0 mm 4 m/s 749 mmHg 56%
    11:00 +38°C° 0 mm 4 m/s 749 mmHg 50%
    12:00 +40°C° 0 mm 4 m/s 749 mmHg 44%
    13:00 +41°C° 0 mm 4 m/s 748 mmHg 41%
    14:00 +41°C° 0 mm 4 m/s 747 mmHg 39%
    15:00 +42°C° 0 mm 4 m/s 746 mmHg 37%
    16:00 +42°C° 0 mm 4 m/s 746 mmHg 38%
    17:00 +40°C° 0 mm 3 m/s 746 mmHg 40%
    18:00 +40°C° 0 mm 3 m/s 746 mmHg 41%
    19:00 +38°C° 0 mm 4 m/s 746 mmHg 48%
    20:00 +37°C° 0 mm 5 m/s 747 mmHg 55%
    21:00 +35°C° 0 mm 6 m/s 748 mmHg 62%
    22:00 +35°C° 0 mm 6 m/s 748 mmHg 64%
    23:00 +34°C° 0 mm 6 m/s 748 mmHg 66%

    Poimâine, 22 Iulie, Luni

    Timp Temperatura Precipitaţii Vânt Presiune Umiditate
    00:00 +33°C° 0 mm 5 m/s 748 mmHg 68%
    01:00 +33°C° 0 mm 5 m/s 748 mmHg 70%
    02:00 +32°C° 0 mm 5 m/s 748 mmHg 71%
    03:00 +32°C° 0 mm 5 m/s 748 mmHg 72%
    04:00 +32°C° 0 mm 5 m/s 748 mmHg 72%
    05:00 +32°C° 0 mm 5 m/s 748 mmHg 72%
    06:00 +30°C° 0 mm 5 m/s 748 mmHg 72%
    07:00 +33°C° 0 mm 5 m/s 748 mmHg 67%
    08:00 +34°C° 0 mm 5 m/s 748 mmHg 62%
    09:00 +35°C° 0 mm 5 m/s 748 mmHg 57%
    10:00 +37°C° 0 mm 5 m/s 748 mmHg 52%
    11:00 +39°C° 0 mm 5 m/s 748 mmHg 47%
    12:00 +40°C° 0 mm 5 m/s 747 mmHg 42%
    13:00 +41°C° 0 mm 5 m/s 747 mmHg 40%
    14:00 +41°C° 0 mm 5 m/s 746 mmHg 38%
    15:00 +42°C° 0 mm 4 m/s 746 mmHg 35%
    16:00 +42°C° 0 mm 4 m/s 745 mmHg 37%
    17:00 +41°C° 0 mm 4 m/s 745 mmHg 38%
    18:00 +41°C° 0 mm 4 m/s 745 mmHg 40%
    19:00 +39°C° 0 mm 5 m/s 746 mmHg 48%
    20:00 +36°C° 0 mm 6 m/s 747 mmHg 55%
    21:00 +34°C° 0 mm 7 m/s 748 mmHg 63%
    22:00 +33°C° 0 mm 7 m/s 748 mmHg 65%
    23:00 +33°C° 0 mm 6 m/s 748 mmHg 67%

    23 Iulie, Marţi

    Timp Temperatura Precipitaţii Vânt Presiune Umiditate
    00:00 +32°C° 0 mm 6 m/s 748 mmHg 69%
    01:00 +32°C° 0 mm 5 m/s 748 mmHg 70%
    02:00 +32°C° 0 mm 5 m/s 747 mmHg 71%
    03:00 +32°C° 0 mm 4 m/s 747 mmHg 73%
    04:00 +30°C° 0 mm 3 m/s 747 mmHg 74%
    05:00 +30°C° 0 mm 3 m/s 747 mmHg 75%
    06:00 +30°C° 0 mm 3 m/s 747 mmHg 77%
    07:00 +31°C° 0 mm 3 m/s 748 mmHg 70%
    08:00 +34°C° 0 mm 3 m/s 748 mmHg 64%
    09:00 +35°C° 0 mm 4 m/s 748 mmHg 57%
    10:00 +36°C° 0 mm 3 m/s 748 mmHg 53%
    11:00 +37°C° 0 mm 3 m/s 747 mmHg 48%
    12:00 +38°C° 0 mm 3 m/s 747 mmHg 44%
    13:00 +39°C° 0 mm 3 m/s 746 mmHg 41%
    14:00 +40°C° 0 mm 2 m/s 746 mmHg 39%
    15:00 +40°C° 0 mm 2 m/s 745 mmHg 36%
    16:00 +40°C° 0 mm 3 m/s 745 mmHg 40%
    17:00 +40°C° 0 mm 4 m/s 745 mmHg 44%
    18:00 +38°C° 0 mm 4 m/s 745 mmHg 48%
    19:00 +37°C° 0 mm 4 m/s 746 mmHg 52%
    20:00 +36°C° 0 mm 4 m/s 746 mmHg 57%
    21:00 +35°C° 0 mm 4 m/s 747 mmHg 61%
    22:00 +34°C° 0 mm 4 m/s 747 mmHg 64%
    23:00 +34°C° 0 mm 4 m/s 747 mmHg 67%

    24 Iulie, Miercuri

    Timp Temperatura Precipitaţii Vânt Presiune Umiditate
    00:00 +33°C° 0 mm 4 m/s 747 mmHg 70%
    01:00 +33°C° 0 mm 4 m/s 747 mmHg 72%
    02:00 +31°C° 0 mm 3 m/s 746 mmHg 74%
    03:00 +31°C° 0 mm 3 m/s 746 mmHg 76%
    04:00 +31°C° 0 mm 2 m/s 746 mmHg 77%
    05:00 +31°C° 0 mm 2 m/s 746 mmHg 78%
    06:00 +30°C° 0 mm 2 m/s 746 mmHg 79%
    07:00 +32°C° 0 mm 2 m/s 747 mmHg 73%
    08:00 +34°C° 0 mm 2 m/s 747 mmHg 68%
    09:00 +35°C° 0 mm 2 m/s 747 mmHg 62%
    10:00 +36°C° 0 mm 2 m/s 747 mmHg 57%
    11:00 +37°C° 0 mm 2 m/s 746 mmHg 52%
    12:00 +38°C° 0 mm 2 m/s 746 mmHg 47%
    13:00 +39°C° 0 mm 2 m/s 746 mmHg 46%
    14:00 +39°C° 0 mm 2 m/s 745 mmHg 45%
    15:00 +39°C° 0 mm 2 m/s 744 mmHg 44%
    16:00 +39°C° 0 mm 2 m/s 744 mmHg 45%
    17:00 +39°C° 0 mm 2 m/s 744 mmHg 46%
    18:00 +38°C° 0 mm 2 m/s 744 mmHg 47%
    19:00 +38°C° 0 mm 3 m/s 745 mmHg 50%
    20:00 +37°C° 0 mm 3 m/s 745 mmHg 54%
    21:00 +36°C° 0 mm 4 m/s 746 mmHg 57%
    22:00 +35°C° 0 mm 4 m/s 746 mmHg 61%
    23:00 +34°C° 0 mm 4 m/s 746 mmHg 65%

    25 Iulie, Joi

    Timp Temperatura Precipitaţii Vânt Presiune Umiditate
    00:00 +33°C° 0 mm 4 m/s 746 mmHg 69%
    01:00 +33°C° 0 mm 4 m/s 746 mmHg 70%
    02:00 +33°C° 0 mm 3 m/s 746 mmHg 71%
    03:00 +33°C° 0 mm 3 m/s 746 mmHg 72%
    04:00 +32°C° 0 mm 2 m/s 746 mmHg 73%
    05:00 +31°C° 0 mm 2 m/s 746 mmHg 73%
    06:00 +31°C° 0 mm 2 m/s 746 mmHg 74%
    07:00 +32°C° 0.3 mm 2 m/s 746 mmHg 69%
    08:00 +34°C° 0.3 mm 2 m/s 746 mmHg 64%
    09:00 +35°C° 0.3 mm 2 m/s 747 mmHg 59%
    10:00 +36°C° 1 mm 2 m/s 746 mmHg 56%
    11:00 +37°C° 1 mm 2 m/s 746 mmHg 53%
    12:00 +38°C° 1 mm 3 m/s 746 mmHg 49%
    13:00 +38°C° 0.1 mm 3 m/s 745 mmHg 49%
    14:00 +38°C° 0.1 mm 3 m/s 744 mmHg 49%
    15:00 +39°C° 0.1 mm 3 m/s 744 mmHg 49%
    16:00 +38°C° 0.1 mm 3 m/s 744 mmHg 51%
    17:00 +38°C° 0.1 mm 3 m/s 744 mmHg 53%
    18:00 +37°C° 0.1 mm 3 m/s 744 mmHg 55%
    19:00 +36°C° 0.8 mm 4 m/s 744 mmHg 58%
    20:00 +35°C° 0.8 mm 4 m/s 745 mmHg 62%
    21:00 +34°C° 0.8 mm 4 m/s 745 mmHg 66%
    22:00 +34°C° 0.3 mm 4 m/s 745 mmHg 68%
    23:00 +33°C° 0.3 mm 4 m/s 745 mmHg 71%
    Arată mai mult